Weather History for Calgary, AB

Change the Weather History Date:

Tuesday, October 16, 2012

  Actual Average Record
Temperature  
Mean Temperature 44 °F -  
Max Temperature 53 °F 45 °F 75 °F (1997)
Min Temperature 33 °F 23 °F 19 °F (1999)
Degree Days  
Heating Degree Days 21    
Moisture  
Dew Point 33 °F    
Average Humidity 66    
Maximum Humidity 87    
Minimum Humidity 35    
Precipitation  
Precipitation 0.16 in 0.02 in - ()
Sea Level Pressure  
Sea Level Pressure 29.41 in    
Wind  
Wind Speed 11 mph ()    
Max Wind Speed 31 mph    
Max Gust Speed 54 mph    
Visibility 13.2 miles    
Events Rain    
Averages and records for this station are not official NWS values.
T = Trace of Precipitation, MM = Missing Value Source: Averaged Metar Reports

Daily Weather History Graph

Daily Weather History Graph

Search for Another Location

Airport:

Trip Planner

Search our weather history database for the weather conditions in past years. The results will help you decide how hot, cold, wet, or windy it might be!

Date:

Astronomy

Oct. 16, 2012 Rise Set
Actual Time 8:02 AM MDT 6:39 PM MDT
Civil Twilight 7:28 AM MDT 7:13 PM MDT
Nautical Twilight 6:50 AM MDT 7:51 PM MDT
Astronomical Twilight 6:11 AM MDT 8:29 PM MDT
Moon 9:45 AM MDT (10/16) 7:10 PM MDT (10/16)
Length of Visible Light 11h 44m
Length of Day
10h 37m
New Moon, 2% of the Moon is Illuminated
Oct 16
New Moon
Oct 21
First Quarter
Oct 29
Full
Nov 6
Last Quarter
Nov 13
New

Hourly Weather History & Observations

Time (MDT) Temp. Windchill Dew Point Humidity Pressure Visibility Wind Dir Wind Speed Gust Speed Precip Events Conditions
12:00 AM 51 °F - 33 °F 38% 29.39 in 15 mi SSW 10.4 mph - -   Partly Cloudy
12:00 AM 51.8 °F - 33.8 °F 50% 29.38 in 15.0 mi SSW 11.5 mph - N/A   Mostly Cloudy
1:00 AM 51.8 °F - 32.0 °F 47% 29.34 in 15.0 mi WSW 5.8 mph - N/A   Scattered Clouds
2:00 AM 48.2 °F - 33.8 °F 58% 29.30 in 15.0 mi South 9.2 mph - N/A   Clear
3:00 AM 42.8 °F 40.1 °F 33.8 °F 70% 29.29 in 15.0 mi SW 4.6 mph - N/A   Partly Cloudy
4:00 AM 44.6 °F 40.7 °F 33.8 °F 66% 29.26 in 15.0 mi West 6.9 mph - N/A   Partly Cloudy
5:00 AM 37.4 °F 32.8 °F 30.2 °F 75% 29.26 in 15.0 mi WNW 5.8 mph - N/A   Scattered Clouds
6:00 AM 41 °F - 34 °F 69% 29.26 in 15 mi WNW 8.1 mph - -   Mostly Cloudy
6:00 AM 41.0 °F 36.4 °F 33.8 °F 76% 29.25 in 15.0 mi NNW 6.9 mph - N/A   Mostly Cloudy
7:00 AM 48.2 °F - 33.8 °F 58% 29.22 in 15.0 mi WSW 11.5 mph - N/A   Mostly Cloudy
8:00 AM 48.2 °F - 33.8 °F 58% 29.20 in 30.0 mi WSW 5.8 mph - N/A   Overcast
9:00 AM 48.2 °F - 33.8 °F 58% 29.21 in 40.0 mi SSW 12.7 mph - N/A   Mostly Cloudy
10:00 AM 50.0 °F - 35.6 °F 58% 29.21 in 40.0 mi WSW 13.8 mph - N/A   Overcast
11:00 AM 51.8 °F - 33.8 °F 50% 29.22 in 40.0 mi West 20.7 mph 31.1 mph N/A   Overcast
12:00 PM 53 °F - 33 °F 35% 29.25 in 37 mi West 16.1 mph - -   Overcast
12:00 PM 53.6 °F - 33.8 °F 47% 29.25 in 40.0 mi West 16.1 mph 24.2 mph N/A   Overcast
1:00 PM 53.6 °F - 33.8 °F 47% 29.30 in 40.0 mi WNW 18.4 mph 25.3 mph N/A   Overcast
1:47 PM 46.4 °F 40.4 °F 37.4 °F 71% 29.35 in 35.0 mi NNW 13.8 mph 40.3 mph N/A Rain Light Rain Showers
2:00 PM 46.4 °F 39.2 °F 39.2 °F 76% 29.38 in 40.0 mi NNW 18.4 mph 29.9 mph N/A Rain Light Rain Showers
2:40 PM 44.6 °F 35.3 °F 41.0 °F 87% 29.42 in 3.0 mi NNW 26.5 mph 32.2 mph N/A Rain Rain Showers
3:00 PM 39.2 °F 27.2 °F 35.6 °F 87% 29.49 in 4.0 mi NW 31.1 mph 54.1 mph N/A Rain Rain
4:00 PM 39.2 °F 28.5 °F 35.6 °F 87% 29.54 in 4.0 mi NW 24.2 mph 32.2 mph N/A Rain Light Rain
5:00 PM 41.0 °F 32.8 °F 35.6 °F 81% 29.55 in 40.0 mi WNW 16.1 mph - N/A   Overcast
6:00 PM 40 °F - 36 °F 79% 29.58 in 37 mi West 13.8 mph - - Rain Light Rain
6:00 PM 41.0 °F 33.1 °F 35.6 °F 81% 29.58 in 40.0 mi West 15.0 mph - N/A   Overcast
7:00 PM 42.8 °F 36.2 °F 33.8 °F 70% 29.62 in 30.0 mi WNW 12.7 mph - N/A Rain Light Rain Showers
7:48 PM 41.0 °F 33.9 °F 33.8 °F 76% 29.65 in 15.0 mi WNW 12.7 mph - N/A   Mostly Cloudy
8:00 PM 39.2 °F 32.5 °F 33.8 °F 81% 29.65 in 15.0 mi West 10.4 mph - N/A   Mostly Cloudy
9:00 PM 37.4 °F 29.8 °F 33.8 °F 87% 29.68 in 15.0 mi West 11.5 mph - N/A   Mostly Cloudy
10:00 PM 37.4 °F 28.9 °F 23.0 °F 56% 29.71 in 15.0 mi WNW 13.8 mph - N/A   Partly Cloudy
10:11 PM 35.6 °F 27.5 °F 24.8 °F 65% 29.72 in 15.0 mi WNW 11.5 mph 17.3 mph N/A   Clear
11:00 PM 33.8 °F 25.3 °F 21.2 °F 60% 29.73 in 15.0 mi West 11.5 mph - N/A   Clear